Overview Statistics Trail Chart Weather Telemetry Raw packets
 

This is the latest recevied weather packets stored in our database for station/object WA5TET. If no packets are shown the sender has not sent any weather packets the latest 10 day(s).

<< 9 10 11 12 13 14 15 >>
Time Temp. Humidity Pressure Rain* Wind** Luminosity Snow
1788548259 36.11° C 38% 1012.4 hPa 0 mm - 680 W/m² -
1788547954 36.11° C 38% 1012.2 hPa 0 mm - 794 W/m² -
1788547652 36.11° C 40% 1012.5 hPa 0 mm - 565 W/m² -
1788547349 36.11° C 38% 1012.6 hPa 0 mm - 1111 W/m² -
1788547045 35.56° C 40% 1012.7 hPa 0 mm - 935 W/m² -
1788546745 35.56° C 40% 1012.8 hPa 0 mm - 839 W/m² -
1788546440 35° C 43% 1012.8 hPa 0 mm - 1006 W/m² -
1788546163 34.44° C 44% 1012.7 hPa 0 mm - 982 W/m² -
1788545830 35° C 44% 1012.8 hPa 0 mm - 721 W/m² -
1788545530 35° C 43% 1013 hPa 0 mm - 718 W/m² -
1788545226 35.56° C 43% 1012.9 hPa 0 mm - 859 W/m² -
1788544921 35.56° C 43% 1013.1 hPa 0 mm - 1040 W/m² -
1788544626 35° C 44% 1013.2 hPa 0 mm - 840 W/m² -
1788544318 34.44° C 45% 1013.4 hPa 0 mm - 950 W/m² -
1788544013 34.44° C 47% 1013.3 hPa 0 mm - 826 W/m² -
1788543709 35° C 44% 1013.4 hPa 0 mm - 1009 W/m² -
1788543405 35° C 44% 1013.4 hPa 0 mm - 964 W/m² -
1788543100 35° C 44% 1013.5 hPa 0 mm - 950 W/m² -
1788542796 35° C 44% 1013.6 hPa 0 mm - 941 W/m² -
1788542495 34.44° C 45% 1013.7 hPa 0 mm - 942 W/m² -
1788542191 33.89° C 49% 1013.6 hPa 0 mm - 924 W/m² -
1788541886 34.44° C 49% 1013.7 hPa 0 mm - 908 W/m² -
1788541582 34.44° C 48% 1013.7 hPa 0 mm - 934 W/m² -
1788541277 33.89° C 49% 1013.9 hPa 0 mm - 936 W/m² -
1788540976 33.33° C 52% 1013.7 hPa 0 mm - 904 W/m² -

* Rain latest hour (hover to see other rain measurements)
** Current wind speed in m/s (hover to see current wind gust speed)